DW0331 Weather Reports


time (UTC)temp
F
wind
direction
speed
knots
gust
knots
rain 1hr
in
rain 24hr
in
rain mn
in
humidity
%
barometer
mb
20260504042004 47 0 0.0 9.6 0.00 0.00 0.00 82 1006.1
20260504041004 47 1 0.9 9.6 0.00 0.00 0.00 80 1006.2
20260504040006 47 1 0.9 5.2 0.00 0.00 0.00 80 1006.3
20260504035005 47 0 0.0 4.3 0.00 0.00 0.00 80 1006.4
20260504034005 47 1 0.9 9.6 0.00 0.00 0.00 79 1006.6
20260504033004 47 1 0.9 8.7 0.00 0.00 0.00 79 1006.4
20260504032004 47 1 0.9 10.4 0.00 0.00 0.00 79 1006.2
20260504031004 47 1 1.7 7.8 0.00 0.00 0.00 77 1006.3
20260504030004 47 1 0.9 5.2 0.00 0.00 0.00 76 1006.4
20260504025005 47 1 1.7 8.7 0.00 0.00 0.00 74 1006.5
20260504024004 47 1 3.5 13.0 0.00 0.00 0.00 74 1006.5
20260504023005 47 1 0.9 13.9 0.00 0.00 0.00 76 1006.6
20260504022005 46 0 0.0 6.1 0.00 0.00 0.00 76 1006.7
20260504021005 46 1 1.7 11.3 0.00 0.00 0.00 75 1006.8
20260504015004 47 1 2.6 11.3 0.00 0.00 0.00 75 1006.8
20260504014004 47 1 3.5 12.2 0.00 0.00 0.00 76 1006.8
20260504013005 47 1 0.9 8.7 0.00 0.00 0.00 75 1006.8
20260504012004 47 1 1.7 13.9 0.00 0.00 0.00 75 1006.8
20260504011005 47 1 4.3 11.3 0.00 0.00 0.00 75 1006.7
20260504010005 48 1 5.2 14.8 0.00 0.00 0.00 76 1006.7
20260504005004 48 0 0.0 7.8 0.00 0.00 0.00 73 1006.6
20260504004004 48 1 1.7 8.7 0.00 0.00 0.00 73 1006.4
20260504003004 49 1 1.7 8.7 0.00 0.00 0.00 71 1006.4
20260504001004 49 1 0.9 10.4 0.00 0.00 0.00 65 1006.5
20260504000004 49 1 4.3 13.0 0.00 0.00 0.00 61 1006.5
20260503235004 50 1 5.2 12.2 0.00 0.00 0.00 61 1006.5
20260503233004 50 359 8.7 16.5 0.00 0.00 0.00 59 1006.4
20260503232004 51 333 8.7 16.5 0.00 0.00 0.00 57 1006.4
20260503230004 52 217 8.7 17.4 0.00 0.00 0.00 52 1006.3
20260503225004 53 222 8.7 16.5 0.00 0.00 0.00 55 1006.3
20260503224004 54 225 5.2 13.0 0.00 0.00 0.00 47 1006.1
20260503220004 55 220 6.1 13.0 0.00 0.01 0.00 45 1006.1
20260503214004 53 205 11.3 19.1 0.00 0.02 0.00 51 1006.1
20260503213004 53 208 10.4 19.1 0.00 0.02 0.00 54 1006.2
20260503212004 53 209 11.3 20.9 0.00 0.02 0.00 55 1006.1
20260503211004 53 208 10.4 17.4 0.00 0.02 0.00 54 1006.2
20260503210005 53 208 12.2 21.7 0.00 0.02 0.00 55 1006.1
20260503204004 52 209 15.6 25.2 0.00 0.02 0.00 58 1006.4
20260503203004 52 206 13.9 23.5 0.00 0.02 0.00 53 1006.5
20260503200005 52 208 13.9 22.6 0.00 0.02 0.00 52 1006.9
20260503195004 51 204 13.9 22.6 0.00 0.02 0.00 53 1007.0
20260503194004 51 204 12.2 21.7 0.00 0.02 0.00 53 1007.2
20260503193004 51 196 14.8 20.0 0.00 0.02 0.00 53 1007.4
20260503192004 51 196 16.5 22.6 0.00 0.02 0.00 53 1007.6
20260503191004 51 208 12.2 20.0 0.00 0.02 0.00 50 1007.7
20260503185004 50 203 15.6 22.6 0.00 0.02 0.00 52 1008.0
20260503184005 50 212 13.9 20.9 0.00 0.02 0.00 50 1008.0
20260503183004 50 213 11.3 20.0 0.00 0.02 0.00 52 1008.2
20260503182004 50 211 12.2 22.6 0.00 0.02 0.00 48 1008.3
20260503175004 51 199 12.2 20.0 0.00 0.02 0.00 49 1008.3
20260503174004 51 207 12.2 20.9 0.00 0.02 0.00 45 1008.4
20260503173004 50 206 10.4 16.5 0.00 0.02 0.00 48 1008.5
20260503172004 51 222 7.8 14.8 0.00 0.02 0.00 49 1008.6
20260503171004 51 202 4.3 11.3 0.00 0.02 0.00 42 1008.7
20260503151004 51 224 0.9 7.8 0.00 0.02 0.00 44 1010.3
20260503131004 45 277 0.9 8.7 0.00 0.02 0.00 57 1011.1
20260503081004 39 0 0.0 0.0 0.00 0.02 0.00 75 1011.0
20260503072003 40 0 0.0 0.0 0.00 0.02 0.00 74 1011.0
20260503071004 40 0 0.0 0.0 0.00 0.02 0.00 73 1011.0
20260503055004 41 0 0.0 0.0 0.00 0.02 0.00 72 1011.2
20260503054004 41 0 0.0 0.0 0.00 0.02 0.00 72 1011.3
20260503053004 41 0 0.0 0.0 0.00 0.02 0.00 72 1011.3
20260503052004 41 0 0.0 0.0 0.00 0.02 0.00 73 1011.4
20260503050009 41 0 0.0 0.0 0.00 0.02 0.00 75 1011.5
20260503045009 42 0 0.0 0.0 0.00 0.02 0.00 75 1011.5
20260503044009 42 0 0.0 0.0 0.00 0.02 0.00 75 1011.6